Regional Weather Roundup
Issued by NWS Charleston, SC

Current Version | Previous Version | Graphics & Text | Print | Product List | Glossary On
Versions: 1 2 3 4 5 6 7 8 9 10 11 12 13 14 15 16 17 18 19 20 21 22 23 24 25 26 27 28 29 30 31 32 33 34 35 36 37 38 39 40 41 42 43 44 45 46 47 48 49 50
000
ASUS42 KCHS 280826
RWRCHS

REGIONAL WEATHER ROUNDUP
NATIONAL WEATHER SERVICE CHARLESTON SC
400 AM EDT SAT MAR 28 2015

NOTE: "FAIR" INDICATES FEW OR NO CLOUDS BELOW 12,000 FEET WITH NO
SIGNIFICANT WEATHER AND/OR OBSTRUCTIONS TO VISIBILITY.

NOT ALL STATIONS ARE QUALITY CONTROLLED BY THE NATIONAL
WEATHER SERVICE. USE DATA WITH CAUTION...ESPECIALLY
DEWPOINT OBSERVATIONS.

SCZ027-030-031-034>040-042>050-280900-
...SOUTHEAST SOUTH CAROLINA...

CITY           SKY/WX    TMP DP  RH WIND       PRES   REMARKS
N CHARLESTON   CLEAR     45  42  89 W5        29.93R
WATERFRONT PRK   N/A     46 N/A N/A W5          N/A
MOUNT PLEASANT FAIR      46  45  93 NW6       29.93R
PINOPOLIS        N/A     52  43  71 NW9       29.84R
MONCKS CORNER  FAIR      45  43  93 CALM      29.93R
SUMMERVILLE    FAIR      45  45 100 W6        29.95R
BEAUFORT MCAS  CLEAR     47  42  83 W7        29.95S
BEAUFORT ARPT  FAIR      48  45  87 CALM      29.95S
HILTON HEAD IS PTCLDY    48  45  87 W5        29.97R
WALTERBORO     PTSUNNY   45  43  93 W8        29.96R
ALLENDALE      FAIR      46  41  81 VRB6      29.95S

...SOUTHERN MIDLANDS AND PEE DEE...

CITY           SKY/WX    TMP DP  RH WIND       PRES   REMARKS
GEORGETOWN     NOT AVBL
KINGSTREE      NOT AVBL
ORANGEBURG     MOCLDY    45  37  73 NW9       29.94R
BARNWELL       PTSUNNY   45  43  93 NW3       29.97R
AIKEN          FAIR      37  36  93 W6        29.98S WCI  33
MANNING        LGT RAIN  43  32  65 CALM      29.93R
COLUMBIA       PTCLDY    42  36  79 W5        29.93S
SUMTER         MOCLDY    45  41  88 NW8       29.90S
FLORENCE       LGT RAIN  46  41  82 W6        29.89R
MYRTLE BEACH   PTCLDY    46  43  87 NW7       29.91R
N MYRTLE BEACH CLOUDY    45  42  89 NW3       29.89R

$$

GAZ063-065-086>088-099>101-113>116-118-119-134>141-150-280900-
...SOUTHEAST GEORGIA...

CITY           SKY/WX    TMP DP  RH WIND       PRES   REMARKS
SAVANNAH ARPT  CLEAR     47  42  83 NW7       29.96S
HUNTER AAF     CLEAR     46  44  92 W6        29.94S
FORT STEWART   CLEAR     49  32  51 NW10      29.96S
STATESBORO     CLEAR     45  36  72 NW9       29.98S
SYLVANIA       SUNNY     46  38  74 NW12      29.98S
CLAXTON        FAIR      46  34  61 W7        29.99S

...CSRA...CENTRAL AND FAR SOUTHEAST GEORGIA...

CITY           SKY/WX    TMP DP  RH WIND       PRES   REMARKS
THOMSON        CLEAR     42  33  70 CALM      30.03S
AUGUSTA-BUSH   CLEAR     43  34  70 W7        29.98R
AUGUSTA-DANIEL CLEAR     45  31  58 W6        29.97R
SWAINSBORO     FAIR      46  25  42 NW8       30.00S
VIDALIA        CLEAR     46  34  61 NW6       29.99S
EASTMAN        FAIR      44  35  70 NW6       30.03F
HAZLEHURST     FAIR      46  34  61 NW5       29.99S
ALMA           CLEAR     47  32  56 NW7       30.01S
WAYCROSS       CLEAR     49  37  62 NW6       30.01S
JESUP          FAIR      48  37  66 NW5       29.99S
BAXLEY         FAIR      46  34  61 NW7       30.00R
BRUNSWICK      CLEAR     46  36  66 W5        30.00R
SAINT SIMONS   CLEAR     50  36  58 NW9       29.98S

$$

SCZ027-028-034-036>038-045-046-048>050-GAZ119-141-280900-
...LAKE AND SUPPLEMENTAL COASTAL OBSERVATIONS...

STATION/POSITION TIME  TEMP    WIND        PRES    WAVE   SWELL
                       AIR SEA DIR/SP/G            HT/PER HT/PER/DIR
                 (UTC) (F)     (DEG/KT/KT) (MB)    (FT/S) (FT/S/D)
UPR LAKE MARION  NOT AVBL
WINYAH BAY       0700   47     300/  5     1011.0S
LAKE MURRAY      0800   43     300/  3/  7 1013.2S
ACE BASIN NERRS  NOT AVBL
FORT PULASKI     0800   50 60  310/  8/ 10 1014.9R
SAPELO ISLAND    0800   51     310/ 11     1015.0S

$$

ANZ835-935-AMZ111-154-330-350-352-354-370-450-454-472-280900-
...C-MAN AND BUOY OBSERVATIONS...

STATION/POSITION TIME  TEMP    WIND        PRES    WAVE   SWELL
                       AIR SEA DIR/SP/G            HT/PER HT/PER/DIR
                 (UTC) (F)     (DEG/KT/KT) (MB)    (FT/S) (FT/S/D)
BUOY 41004       0750   54 69  330/ 17/ 21 1011.1R   5/ 6   2/ 8
BUOY 41008       0750   54 61  320/ 17/ 21 1014.0R   4/ 4   2/100/ 9
FOLLY BEACH CMAN 0800   48     300/  8/ 10 1013.3R
CAPERS NEARSHORE 0700   50     340/ 14/ 16   N/A
FRIPP NEARSHORE  0700   51     330/ 12/ 14 1013.3R


STATION/POSITION TIME  TEMP    WIND        PRES    WAVE   SWELL
                       AIR SEA DIR/SP/G            HT/PER HT/PER/DIR
                 (UTC) (F)     (DEG/KT/KT) (MB)    (FT/S) (FT/S/D)
5E ST. MARYS GA  0721      61                N/A     3/ 4
FRYING PAN BUOY  0750   51 65  310/ 19/ 23 1010.6R   6/ 8   5/130/ 8
BUOY 41025       NOT AVBL
CAPE LOOKOUT NC  0800   44     330/ 17/ 19 1008.8R
BUOY 41002       0750   67 69  290/ 23/ 29 1005.5R  11/ 8
BUOY 41010       0720   69 76  300/ 23/ 31 1012.2R
ST AUGUSTINE FL  0800   53 60  320/  9/ 13 1016.7R


$$



USA.gov is the U.S. government's official web portal to all federal, state and local government web resources and services.